TimeCST,TemperatureF,Dew PointF,Humidity,Sea Level PressureIn,VisibilityMPH,Wind Direction,Wind SpeedMPH,Gust SpeedMPH,PrecipitationIn,Events,Conditions,WindDirDegrees,DateUTC
12:15 AM,39.2,28.4,65,30.31,10.0,SSE,3.5,-,N/A,,Clear,150,2012-12-31 06:15:00
12:35 AM,39.2,28.4,65,30.30,10.0,Calm,Calm,-,N/A,,Clear,0,2012-12-31 06:35:00
12:55 AM,39.2,28.4,65,30.32,10.0,Calm,Calm,-,N/A,,Clear,0,2012-12-31 06:55:00
1:15 AM,39.2,28.4,65,30.31,10.0,ESE,4.6,-,N/A,,Clear,110,2012-12-31 07:15:00
1:35 AM,39.2,28.4,65,30.30,10.0,ESE,8.1,-,N/A,,Clear,120,2012-12-31 07:35:00
1:55 AM,39.2,28.4,65,30.29,10.0,SE,5.8,-,N/A,,Clear,130,2012-12-31 07:55:00
2:15 AM,39.2,28.4,65,30.30,10.0,SSE,4.6,-,N/A,,Clear,150,2012-12-31 08:15:00
2:35 AM,39.2,28.4,65,30.29,10.0,SE,5.8,-,N/A,,Clear,140,2012-12-31 08:35:00
2:55 AM,39.2,28.4,65,30.30,10.0,SE,6.9,-,N/A,,Clear,140,2012-12-31 08:55:00
3:15 AM,41.0,28.4,61,30.27,10.0,ESE,8.1,-,N/A,,Clear,120,2012-12-31 09:15:00
3:35 AM,39.2,28.4,65,30.28,10.0,SE,8.1,-,N/A,,Clear,130,2012-12-31 09:35:00
3:55 AM,41.0,28.4,61,30.27,10.0,SE,8.1,-,N/A,,Mostly Cloudy,130,2012-12-31 09:55:00
4:15 AM,41.0,28.4,61,30.28,10.0,SE,8.1,-,N/A,,Overcast,140,2012-12-31 10:15:00
4:35 AM,41.0,28.4,61,30.27,10.0,SE,6.9,-,N/A,,Overcast,130,2012-12-31 10:35:00
4:55 AM,41.0,28.4,61,30.27,10.0,SE,4.6,-,N/A,,Overcast,140,2012-12-31 10:55:00
5:15 AM,41.0,28.4,61,30.27,10.0,SE,5.8,-,N/A,,Overcast,140,2012-12-31 11:15:00
5:35 AM,42.8,28.4,57,30.27,10.0,SSE,3.5,-,N/A,,Overcast,150,2012-12-31 11:35:00
5:55 AM,42.8,28.4,57,30.26,10.0,SE,4.6,-,N/A,,Overcast,130,2012-12-31 11:55:00
6:15 AM,42.8,28.4,57,30.27,10.0,SSE,4.6,-,N/A,,Overcast,150,2012-12-31 12:15:00
6:55 AM,42.8,28.4,57,30.27,10.0,SSE,3.5,-,N/A,,Overcast,150,2012-12-31 12:55:00
7:15 AM,42.8,30.2,61,30.26,10.0,ESE,4.6,-,N/A,,Overcast,120,2012-12-31 13:15:00
7:35 AM,42.8,30.2,61,30.26,10.0,SE,8.1,-,N/A,,Overcast,130,2012-12-31 13:35:00
7:55 AM,42.8,28.4,57,30.26,10.0,SE,8.1,-,N/A,,Overcast,130,2012-12-31 13:55:00
8:15 AM,42.8,30.2,61,30.26,10.0,SE,5.8,-,N/A,,Overcast,140,2012-12-31 14:15:00
8:35 AM,44.6,30.2,57,30.26,10.0,SE,5.8,-,N/A,,Overcast,130,2012-12-31 14:35:00
8:55 AM,44.6,30.2,57,30.25,10.0,ESE,8.1,-,N/A,,Overcast,120,2012-12-31 14:55:00
9:15 AM,46.4,32.0,57,30.25,10.0,SE,9.2,-,N/A,,Overcast,140,2012-12-31 15:15:00
9:35 AM,46.4,33.8,62,30.25,10.0,SE,10.4,17.3,N/A,,Overcast,130,2012-12-31 15:35:00
9:55 AM,48.2,35.6,62,30.24,10.0,SE,11.5,16.1,N/A,,Overcast,140,2012-12-31 15:55:00
10:15 AM,48.2,37.4,66,30.23,10.0,SE,9.2,-,N/A,,Overcast,140,2012-12-31 16:15:00
10:35 AM,50.0,37.4,62,30.23,10.0,SE,9.2,-,N/A,,Overcast,140,2012-12-31 16:35:00
10:55 AM,53.6,41.0,62,30.22,10.0,SSE,11.5,-,N/A,,Mostly Cloudy,150,2012-12-31 16:55:00
11:15 AM,55.4,42.8,63,30.20,10.0,SSE,10.4,-,N/A,,Scattered Clouds,150,2012-12-31 17:15:00
11:35 AM,57.2,44.6,63,30.18,10.0,SSE,15.0,-,N/A,,Mostly Cloudy,150,2012-12-31 17:35:00
11:55 AM,57.2,44.6,63,30.16,10.0,SSE,11.5,-,N/A,,Overcast,150,2012-12-31 17:55:00
12:15 PM,57.2,46.4,67,30.15,10.0,SSE,12.7,-,N/A,,Overcast,150,2012-12-31 18:15:00
12:35 PM,57.2,46.4,67,30.14,10.0,SSE,11.5,17.3,N/A,,Overcast,150,2012-12-31 18:35:00
12:55 PM,59.0,46.4,63,30.12,10.0,SSE,10.4,-,N/A,,Overcast,160,2012-12-31 18:55:00
1:15 PM,59.0,46.4,63,30.12,10.0,SSE,5.8,-,N/A,,Overcast,150,2012-12-31 19:15:00
1:35 PM,60.8,48.2,63,30.11,10.0,SSE,11.5,-,N/A,,Overcast,160,2012-12-31 19:35:00
1:55 PM,60.8,50.0,68,30.11,10.0,SSE,9.2,-,N/A,,Overcast,160,2012-12-31 19:55:00
2:15 PM,60.8,50.0,68,30.11,10.0,South,8.1,-,N/A,,Overcast,170,2012-12-31 20:15:00
2:35 PM,60.8,51.8,72,30.11,10.0,South,8.1,-,N/A,,Overcast,170,2012-12-31 20:35:00
2:55 PM,60.8,50.0,68,30.10,10.0,SSE,12.7,-,N/A,,Overcast,160,2012-12-31 20:55:00
3:15 PM,60.8,50.0,68,30.09,10.0,SSE,8.1,16.1,N/A,,Mostly Cloudy,150,2012-12-31 21:15:00
3:35 PM,60.8,51.8,72,30.09,10.0,SSE,12.7,-,N/A,,Mostly Cloudy,150,2012-12-31 21:35:00
3:55 PM,60.8,51.8,72,30.09,10.0,SSE,12.7,-,N/A,,Overcast,160,2012-12-31 21:55:00
4:35 PM,59.0,51.8,77,30.09,10.0,SSE,15.0,-,N/A,,Mostly Cloudy,160,2012-12-31 22:35:00
4:55 PM,59.0,51.8,77,30.08,10.0,SSE,11.5,-,N/A,,Mostly Cloudy,150,2012-12-31 22:55:00
5:15 PM,59.0,51.8,77,30.08,10.0,SSE,11.5,-,N/A,,Scattered Clouds,160,2012-12-31 23:15:00
5:35 PM,59.0,51.8,77,30.08,10.0,SSE,11.5,16.1,N/A,,Mostly Cloudy,160,2012-12-31 23:35:00
5:55 PM,59.0,51.8,77,30.07,10.0,SSE,9.2,-,N/A,,Scattered Clouds,160,2012-12-31 23:55:00
6:15 PM,59.0,51.8,77,30.07,10.0,SSE,13.8,-,N/A,,Mostly Cloudy,160,2013-01-01 00:15:00
6:35 PM,59.0,51.8,77,30.05,10.0,SSE,13.8,-,N/A,,Overcast,160,2013-01-01 00:35:00
6:55 PM,59.0,51.8,77,30.05,10.0,SSE,12.7,21.9,N/A,,Mostly Cloudy,160,2013-01-01 00:55:00
7:15 PM,59.0,51.8,77,30.05,10.0,SSE,12.7,16.1,N/A,,Overcast,160,2013-01-01 01:15:00
7:35 PM,59.0,53.6,82,30.04,10.0,SSE,13.8,-,N/A,,Overcast,160,2013-01-01 01:35:00
7:55 PM,57.2,53.6,88,30.03,10.0,SSE,10.4,-,N/A,,Scattered Clouds,160,2013-01-01 01:55:00
8:15 PM,59.0,53.6,82,30.03,10.0,SSE,12.7,-,N/A,,Clear,160,2013-01-01 02:15:00
8:35 PM,59.0,53.6,82,30.03,10.0,SSE,12.7,-,N/A,,Clear,160,2013-01-01 02:35:00
9:15 PM,59.0,53.6,82,30.02,10.0,SSE,12.7,-,N/A,,Clear,160,2013-01-01 03:15:00
9:35 PM,59.0,53.6,82,30.01,10.0,SSE,12.7,-,N/A,,Clear,160,2013-01-01 03:35:00
9:55 PM,59.0,53.6,82,30.01,10.0,South,12.7,18.4,N/A,,Mostly Cloudy,170,2013-01-01 03:55:00
10:15 PM,60.8,55.4,82,30.01,10.0,South,10.4,18.4,N/A,,Overcast,170,2013-01-01 04:15:00
10:35 PM,60.8,55.4,82,30.01,10.0,South,12.7,18.4,N/A,,Overcast,170,2013-01-01 04:35:00
10:55 PM,60.8,55.4,82,30.00,10.0,South,13.8,20.7,N/A,,Mostly Cloudy,170,2013-01-01 04:55:00
11:15 PM,60.8,55.4,82,30.00,10.0,South,13.8,21.9,N/A,,Scattered Clouds,180,2013-01-01 05:15:00
11:35 PM,60.8,55.4,82,29.99,10.0,South,16.1,21.9,N/A,,Mostly Cloudy,170,2013-01-01 05:35:00
11:55 PM,62.6,55.4,77,29.98,10.0,South,17.3,24.2,N/A,,Scattered Clouds,170,2013-01-01 05:55:00